SIA21 KEWR-WSSS

Flight info

Callsign SIA21
Flight time N/A
Altitude 33000
Route MERIT DCT HFD DCT PUT DCT TUSKY DCT YHZ Q846 NOTOP DCT JOOPY/M085F350 DCT 49N050W 50N040W 51N030W 51N020W DCT DINIM DCT ELSOX DCT LESLU/N0488F350 DCT OXLOW/N0484F370 DCT KONAN UL607 KOK DCT REMBA DCT MATUG DCT AMASI DCT BOMBI DCT TENLO DCT DEXIT DCT PESAT/N0477F390 DCT TEGRI DCT UDROS UM859 KARDE UL851 TBN UR317 REBLO M11 LUSAL N199 BAKUV N701 LARGI B701 KRS A240 KESEK/N0485F410 A240 INRAK B449 DOLOS B475 RUBAD A846 RANAH L750 MERUN G452 LKN R460 CEA L507 BGO M626 IKOGA Y24 PASVA Y514 NUFFA DCT PIBAP DCT PASPU DCT NYLON
Aircraft A359/H-SDE1E2E3GHIJ1J2J3J5M1P2RWXYZ/LB1D1

Departure

Time 2026-04-23 15:11
Airport Newark Liberty International Airport (KEWR)

Arrival

Time N/A
Airport Singapore Changi Airport (WSSS)
Time Latitude Longitude Altitude Speed Heading
2026-04-23 14:26 40.69935 -74.17872 26 ft 0 kts 200°
2026-04-23 14:55 40.69943 -74.17868 32 ft 4 kts 195°
2026-04-23 14:55 40.69968 -74.17865 32 ft 4 kts 160°
2026-04-23 14:55 40.69988 -74.17884 32 ft 4 kts 117°
2026-04-23 14:56 40.69995 -74.17912 31 ft 1 kts 96°
2026-04-23 14:59 40.69993 -74.17889 31 ft 5 kts 95°
2026-04-23 15:00 40.69988 -74.17823 27 ft 10 kts 95°
2026-04-23 15:00 40.69982 -74.17736 29 ft 9 kts 95°
2026-04-23 15:00 40.69977 -74.17661 30 ft 8 kts 95°
2026-04-23 15:00 40.69973 -74.17588 30 ft 8 kts 95°
2026-04-23 15:01 40.69967 -74.17508 29 ft 9 kts 96°
2026-04-23 15:01 40.69955 -74.17421 29 ft 10 kts 105°
2026-04-23 15:01 40.69922 -74.17328 28 ft 12 kts 122°
2026-04-23 15:01 40.69870 -74.17239 28 ft 12 kts 132°
2026-04-23 15:02 40.69831 -74.17184 27 ft 12 kts 138°
2026-04-23 15:02 40.69741 -74.17091 26 ft 12 kts 147°
2026-04-23 15:02 40.69666 -74.17040 26 ft 12 kts 156°
2026-04-23 15:02 40.69602 -74.17008 28 ft 5 kts 162°
2026-04-23 15:03 40.69581 -74.17001 28 ft 0 kts 164°
2026-04-23 15:03 40.69574 -74.16998 28 ft 1 kts 165°
2026-04-23 15:03 40.69559 -74.16993 28 ft 6 kts 166°
2026-04-23 15:04 40.69490 -74.16980 31 ft 12 kts 172°
2026-04-23 15:04 40.69410 -74.16975 27 ft 11 kts 180°
2026-04-23 15:04 40.69327 -74.16987 30 ft 13 kts 185°
2026-04-23 15:04 40.69239 -74.17024 28 ft 14 kts 203°
2026-04-23 15:05 40.69155 -74.17079 30 ft 14 kts 206°
2026-04-23 15:05 40.69065 -74.17134 25 ft 15 kts 205°
2026-04-23 15:05 40.68973 -74.17192 28 ft 14 kts 207°
2026-04-23 15:05 40.68893 -74.17241 28 ft 11 kts 205°
2026-04-23 15:06 40.68824 -74.17289 29 ft 11 kts 207°
2026-04-23 15:06 40.68755 -74.17334 30 ft 10 kts 206°
2026-04-23 15:06 40.68695 -74.17373 32 ft 9 kts 205°
2026-04-23 15:06 40.68641 -74.17406 33 ft 9 kts 205°
2026-04-23 15:07 40.68583 -74.17441 32 ft 10 kts 204°
2026-04-23 15:07 40.68514 -74.17484 30 ft 12 kts 205°
2026-04-23 15:07 40.68436 -74.17532 30 ft 13 kts 205°
2026-04-23 15:07 40.68353 -74.17586 29 ft 14 kts 207°
2026-04-23 15:08 40.68257 -74.17650 29 ft 17 kts 207°
2026-04-23 15:08 40.68152 -74.17718 26 ft 16 kts 202°
2026-04-23 15:08 40.68054 -74.17773 28 ft 15 kts 209°
2026-04-23 15:09 40.67873 -74.17887 28 ft 13 kts 201°
2026-04-23 15:09 40.67790 -74.17942 28 ft 14 kts 209°
2026-04-23 15:09 40.67702 -74.18004 28 ft 14 kts 205°
2026-04-23 15:09 40.67610 -74.18037 28 ft 14 kts 166°
2026-04-23 15:10 40.67569 -74.17977 28 ft 13 kts 109°
2026-04-23 15:10 40.67624 -74.17888 27 ft 12 kts 27°
2026-04-23 15:10 40.67856 -74.17740 30 ft 66 kts 26°
2026-04-23 15:10 40.68438 -74.17370 29 ft 118 kts 26°
2026-04-23 15:11 40.69326 -74.16809 30 ft 163 kts 25°
2026-04-23 15:11 40.70403 -74.16124 454 ft 170 kts 26°
2026-04-23 15:11 40.71439 -74.15434 1034 ft 172 kts 25°
2026-04-23 15:11 40.72431 -74.14385 1269 ft 192 kts 45°
2026-04-23 15:12 40.73333 -74.13003 1464 ft 206 kts 50°
2026-04-23 15:12 40.74238 -74.11447 1710 ft 221 kts 52°
2026-04-23 15:12 40.75203 -74.09779 1980 ft 236 kts 51°
2026-04-23 15:12 40.76257 -74.08030 2298 ft 249 kts 49°
2026-04-23 15:13 40.77364 -74.06252 2755 ft 256 kts 49°
2026-04-23 15:13 40.78520 -74.04449 3305 ft 258 kts 47°
2026-04-23 15:13 40.79697 -74.02651 3832 ft 260 kts 46°
2026-04-23 15:13 40.80899 -74.00846 4398 ft 261 kts 45°
2026-04-23 15:14 40.82105 -73.99045 4999 ft 262 kts 45°
2026-04-23 15:14 40.83322 -73.97229 5520 ft 265 kts 45°
2026-04-23 15:14 40.84547 -73.95398 5997 ft 268 kts 44°
2026-04-23 15:14 40.85769 -73.93568 6526 ft 269 kts 44°
2026-04-23 15:15 40.87008 -73.91706 7022 ft 271 kts 44°
2026-04-23 15:15 40.88259 -73.89822 7499 ft 273 kts 43°
2026-04-23 15:15 40.89514 -73.87925 8039 ft 275 kts 43°
2026-04-23 15:15 40.90781 -73.86010 8509 ft 278 kts 43°
2026-04-23 15:16 40.92061 -73.84077 8979 ft 281 kts 42°
2026-04-23 15:16 40.92915 -73.82783 9328 ft 282 kts 42°
2026-04-23 15:16 40.94211 -73.80817 9812 ft 285 kts 42°
2026-04-23 15:16 40.95526 -73.78825 10183 ft 291 kts 41°
2026-04-23 15:17 40.96891 -73.76765 10357 ft 304 kts 41°
2026-04-23 15:17 40.98310 -73.74622 10528 ft 316 kts 42°
2026-04-23 15:17 40.99785 -73.72385 10715 ft 328 kts 42°
2026-04-23 15:17 41.01311 -73.70064 10892 ft 340 kts 43°
2026-04-23 15:18 41.02884 -73.67670 11084 ft 351 kts 43°
2026-04-23 15:18 41.04512 -73.65194 11267 ft 361 kts 42°
2026-04-23 15:18 41.06186 -73.62654 11445 ft 371 kts 42°
2026-04-23 15:18 41.07909 -73.60041 11600 ft 381 kts 42°
2026-04-23 15:19 41.09675 -73.57361 11820 ft 388 kts 42°
2026-04-23 15:19 41.11458 -73.54649 12169 ft 392 kts 43°
2026-04-23 15:19 41.13237 -73.51949 12560 ft 394 kts 42°
2026-04-23 15:19 41.15081 -73.49168 12910 ft 398 kts 42°
2026-04-23 15:20 41.16882 -73.46442 13310 ft 400 kts 42°
2026-04-23 15:20 41.18718 -73.43646 13648 ft 403 kts 43°
2026-04-23 15:20 41.20568 -73.40813 13989 ft 406 kts 42°
2026-04-23 15:20 41.22418 -73.37965 14343 ft 407 kts 42°
2026-04-23 15:21 41.24273 -73.35100 14703 ft 409 kts 42°
2026-04-23 15:21 41.26127 -73.32232 15055 ft 410 kts 42°
2026-04-23 15:21 41.27991 -73.29344 15424 ft 413 kts 42°
2026-04-23 15:21 41.29866 -73.26438 15738 ft 415 kts 42°
2026-04-23 15:22 41.31724 -73.23558 16079 ft 417 kts 42°
2026-04-23 15:22 41.33614 -73.20624 16430 ft 419 kts 42°
2026-04-23 15:22 41.35516 -73.17670 16777 ft 421 kts 42°
2026-04-23 15:22 41.37391 -73.14654 17154 ft 427 kts 46°
2026-04-23 15:23 41.39068 -73.11360 17545 ft 431 kts 49°
2026-04-23 15:23 41.40673 -73.07951 17825 ft 436 kts 51°
2026-04-23 15:23 41.42239 -73.04469 18123 ft 440 kts 52°
2026-04-23 15:23 41.43785 -73.00944 18436 ft 442 kts 52°
2026-04-23 15:24 41.45314 -72.97431 18719 ft 444 kts 52°
2026-04-23 15:24 41.46868 -72.93859 19061 ft 445 kts 52°
2026-04-23 15:24 41.48434 -72.90272 19322 ft 448 kts 51°
2026-04-23 15:24 41.50004 -72.86685 19635 ft 449 kts 51°
2026-04-23 15:25 41.51581 -72.83087 19964 ft 450 kts 51°
2026-04-23 15:25 41.53165 -72.79475 20247 ft 452 kts 51°
2026-04-23 15:25 41.54755 -72.75847 20569 ft 453 kts 51°
2026-04-23 15:25 41.56349 -72.72207 20880 ft 455 kts 51°
2026-04-23 15:26 41.57945 -72.68554 21207 ft 456 kts 51°
2026-04-23 15:26 41.59544 -72.64894 21489 ft 458 kts 51°
2026-04-23 15:26 41.61152 -72.61209 21786 ft 460 kts 51°
2026-04-23 15:26 41.62764 -72.57510 22106 ft 462 kts 51°
2026-04-23 15:27 41.64385 -72.53788 22370 ft 464 kts 51°
2026-04-23 15:27 41.66028 -72.50074 22662 ft 465 kts 50°
2026-04-23 15:27 41.67701 -72.46364 23017 ft 466 kts 50°
2026-04-23 15:27 41.69384 -72.42655 23334 ft 467 kts 50°
2026-04-23 15:28 41.71052 -72.38979 23623 ft 468 kts 50°
2026-04-23 15:28 41.72742 -72.35246 23885 ft 470 kts 50°
2026-04-23 15:28 41.74436 -72.31490 24157 ft 471 kts 50°
2026-04-23 15:28 41.76123 -72.27736 24444 ft 472 kts 50°
2026-04-23 15:29 41.77821 -72.23946 24737 ft 473 kts 50°
2026-04-23 15:29 41.79514 -72.20161 24985 ft 475 kts 49°
2026-04-23 15:29 41.81211 -72.16359 25270 ft 476 kts 49°
2026-04-23 15:29 41.82890 -72.12592 25569 ft 477 kts 49°
2026-04-23 15:30 41.84596 -72.08762 25838 ft 478 kts 49°
2026-04-23 15:30 41.86300 -72.04932 26097 ft 479 kts 49°
2026-04-23 15:30 41.88008 -72.01090 26351 ft 480 kts 49°
2026-04-23 15:30 41.89723 -71.97227 26633 ft 481 kts 49°
2026-04-23 15:31 41.91434 -71.93363 26901 ft 482 kts 49°
2026-04-23 15:31 41.93150 -71.89486 27173 ft 483 kts 49°
2026-04-23 15:31 41.94874 -71.85589 27368 ft 485 kts 49°
2026-04-23 15:31 41.96577 -71.81661 27612 ft 489 kts 51°
2026-04-23 15:32 41.98125 -71.77626 27885 ft 495 kts 53°
2026-04-23 15:32 41.99607 -71.73429 28078 ft 499 kts 54°
2026-04-23 15:32 42.01066 -71.69173 28280 ft 501 kts 54°
2026-04-23 15:32 42.02526 -71.64913 28487 ft 502 kts 54°
2026-04-23 15:33 42.04005 -71.60654 28684 ft 502 kts 54°
2026-04-23 15:33 42.05503 -71.56398 28892 ft 502 kts 54°
2026-04-23 15:33 42.07012 -71.52152 29122 ft 503 kts 53°
2026-04-23 15:33 42.08528 -71.47907 29388 ft 502 kts 53°
2026-04-23 15:34 42.10039 -71.43675 29717 ft 500 kts 53°
2026-04-23 15:34 42.11541 -71.39461 30055 ft 499 kts 53°
2026-04-23 15:34 42.13037 -71.35254 30292 ft 497 kts 52°
2026-04-23 15:34 42.14529 -71.31058 30536 ft 496 kts 52°
2026-04-23 15:35 42.15998 -71.26921 30748 ft 495 kts 52°
2026-04-23 15:35 42.17481 -71.22737 30968 ft 494 kts 52°
2026-04-23 15:35 42.18953 -71.18577 31214 ft 492 kts 52°
2026-04-23 15:35 42.20427 -71.14402 31431 ft 491 kts 52°
2026-04-23 15:36 42.21894 -71.10247 31612 ft 490 kts 52°
2026-04-23 15:36 42.23361 -71.06084 31821 ft 490 kts 52°
2026-04-23 15:36 42.24821 -71.01935 32070 ft 488 kts 52°
2026-04-23 15:36 42.26272 -70.97799 32312 ft 486 kts 52°
2026-04-23 15:37 42.27719 -70.93672 32485 ft 485 kts 52°
2026-04-23 15:37 42.29161 -70.89558 32645 ft 485 kts 52°
2026-04-23 15:37 42.30606 -70.85432 32790 ft 486 kts 52°
2026-04-23 15:38 42.33497 -70.77179 32850 ft 490 kts 52°
2026-04-23 15:38 42.36414 -70.68809 32925 ft 494 kts 52°
2026-04-23 15:39 42.39347 -70.60366 32922 ft 496 kts 53°
2026-04-23 15:39 42.42280 -70.51886 32952 ft 497 kts 53°
2026-04-23 15:40 42.45202 -70.43418 32920 ft 502 kts 53°
2026-04-23 15:40 42.48164 -70.34814 32938 ft 504 kts 53°
2026-04-23 15:41 42.51113 -70.26203 32937 ft 504 kts 53°
2026-04-23 15:41 42.54064 -70.17571 32958 ft 505 kts 54°
2026-04-23 15:42 42.57028 -70.08882 32933 ft 509 kts 54°
2026-04-23 15:42 42.59995 -70.00149 32935 ft 510 kts 54°
2026-04-23 15:43 42.62935 -69.91460 32932 ft 510 kts 54°
2026-04-23 15:43 42.65892 -69.82700 32934 ft 510 kts 55°
2026-04-23 15:44 42.68852 -69.73908 32917 ft 512 kts 55°
2026-04-23 15:44 42.71812 -69.65081 32927 ft 513 kts 55°
2026-04-23 15:45 42.74768 -69.56238 32921 ft 513 kts 55°
2026-04-23 15:45 42.77697 -69.47449 32917 ft 514 kts 56°
2026-04-23 15:46 42.80657 -69.38548 32913 ft 517 kts 56°
2026-04-23 15:46 42.83614 -69.29616 32914 ft 517 kts 57°
2026-04-23 15:47 42.86564 -69.20671 32912 ft 517 kts 57°
2026-04-23 15:47 42.89513 -69.11703 32910 ft 519 kts 57°
2026-04-23 15:48 42.92448 -69.02755 32910 ft 520 kts 57°
2026-04-23 15:48 42.95393 -68.93736 32908 ft 520 kts 57°
2026-04-23 15:49 42.98336 -68.84694 32936 ft 520 kts 58°
2026-04-23 15:49 43.01272 -68.75650 32910 ft 522 kts 58°
2026-04-23 15:50 43.04207 -68.66572 32904 ft 522 kts 58°
2026-04-23 15:50 43.07136 -68.57484 32904 ft 522 kts 58°
2026-04-23 15:51 43.10057 -68.48390 32902 ft 522 kts 59°
2026-04-23 15:51 43.12957 -68.39331 32904 ft 522 kts 59°
2026-04-23 15:52 43.15868 -68.30206 32899 ft 522 kts 60°
2026-04-23 15:52 43.18775 -68.21064 32898 ft 523 kts 60°
2026-04-23 15:53 43.21676 -68.11907 32901 ft 523 kts 60°
2026-04-23 15:53 43.24552 -68.02799 32911 ft 523 kts 61°
2026-04-23 15:54 43.27433 -67.93638 32903 ft 522 kts 61°
2026-04-23 15:54 43.30304 -67.84483 32913 ft 522 kts 61°
2026-04-23 15:55 43.33175 -67.75294 32900 ft 523 kts 62°
2026-04-23 15:55 43.36025 -67.66143 32904 ft 523 kts 62°
2026-04-23 15:56 43.38877 -67.56948 32898 ft 523 kts 62°
2026-04-23 15:56 43.41724 -67.47741 32898 ft 523 kts 62°
2026-04-23 15:57 43.44563 -67.38523 32902 ft 523 kts 62°
2026-04-23 15:57 43.47396 -67.29296 32919 ft 523 kts 63°
2026-04-23 15:58 43.50222 -67.20056 32908 ft 522 kts 63°
2026-04-23 15:58 43.53020 -67.10879 32905 ft 522 kts 63°
2026-04-23 15:59 43.55839 -67.01662 32898 ft 521 kts 61°
2026-04-23 15:59 43.59183 -66.92832 32938 ft 518 kts 57°
2026-04-23 16:00 43.62645 -66.84141 32927 ft 516 kts 57°
2026-04-23 16:00 43.66103 -66.75523 32925 ft 516 kts 57°
2026-04-23 16:01 43.69577 -66.66824 32921 ft 517 kts 58°
2026-04-23 16:01 43.73043 -66.58100 32926 ft 518 kts 58°
2026-04-23 16:02 43.76503 -66.49356 32925 ft 518 kts 58°
2026-04-23 16:02 43.79958 -66.40596 32923 ft 518 kts 58°
2026-04-23 16:03 43.83389 -66.31872 32920 ft 518 kts 58°
2026-04-23 16:03 43.86824 -66.23110 32917 ft 517 kts 59°
2026-04-23 16:04 43.90255 -66.14331 32915 ft 517 kts 59°
2026-04-23 16:04 43.93662 -66.05588 32917 ft 518 kts 59°
2026-04-23 16:05 43.96509 -65.98261 32921 ft 518 kts 59°
2026-04-23 16:05 44.00476 -65.88017 32926 ft 517 kts 59°
2026-04-23 16:06 44.03874 -65.79215 32931 ft 516 kts 59°
2026-04-23 16:06 44.07265 -65.70402 32936 ft 516 kts 59°
2026-04-23 16:07 44.10645 -65.61591 32933 ft 516 kts 59°
2026-04-23 16:07 44.14023 -65.52756 32939 ft 517 kts 60°
2026-04-23 16:08 44.17398 -65.43902 32935 ft 517 kts 60°
2026-04-23 16:08 44.20749 -65.35083 32936 ft 518 kts 60°
2026-04-23 16:09 44.24113 -65.26202 32940 ft 517 kts 60°
2026-04-23 16:09 44.27468 -65.17316 32939 ft 517 kts 60°
2026-04-23 16:10 44.30253 -65.09916 32934 ft 517 kts 60°
2026-04-23 16:10 44.34142 -64.99554 32941 ft 517 kts 60°
2026-04-23 16:11 44.37476 -64.90638 32939 ft 517 kts 61°
2026-04-23 16:11 44.40246 -64.83208 32938 ft 517 kts 61°
2026-04-23 16:12 44.43568 -64.74270 32937 ft 518 kts 61°
2026-04-23 16:12 44.46886 -64.65319 32935 ft 518 kts 62°
2026-04-23 16:13 44.50193 -64.56365 32936 ft 517 kts 62°
2026-04-23 16:13 44.55118 -64.42973 32926 ft 517 kts 62°
2026-04-23 16:14 44.58405 -64.34001 32925 ft 517 kts 62°
2026-04-23 16:14 44.61689 -64.25008 32934 ft 517 kts 63°
2026-04-23 16:15 44.64966 -64.16004 32931 ft 517 kts 63°
2026-04-23 16:15 44.68208 -64.07066 32928 ft 517 kts 63°
2026-04-23 16:16 44.71470 -63.98046 32931 ft 517 kts 63°
2026-04-23 16:16 44.74725 -63.89014 32937 ft 517 kts 63°
2026-04-23 16:17 44.77972 -63.79973 32929 ft 517 kts 63°
2026-04-23 16:17 44.81186 -63.70996 32897 ft 517 kts 63°
2026-04-23 16:18 44.84416 -63.61942 32881 ft 517 kts 63°
2026-04-23 16:18 44.87637 -63.52885 32888 ft 517 kts 64°
2026-04-23 16:19 44.90860 -63.43794 32889 ft 517 kts 64°
2026-04-23 16:19 44.94051 -63.34693 32895 ft 517 kts 64°
2026-04-23 16:20 44.97128 -63.25570 32905 ft 517 kts 65°
2026-04-23 16:20 45.00222 -63.16318 32925 ft 517 kts 65°
2026-04-23 16:21 45.03276 -63.07205 32921 ft 516 kts 65°
2026-04-23 16:21 45.06350 -62.98027 32922 ft 516 kts 65°
2026-04-23 16:22 45.09546 -62.88934 32920 ft 517 kts 61°
2026-04-23 16:22 45.13182 -62.80198 32920 ft 516 kts 59°
2026-04-23 16:23 45.16867 -62.71486 32916 ft 515 kts 60°
2026-04-23 16:23 45.20484 -62.62697 32917 ft 516 kts 60°
2026-04-23 16:24 45.24051 -62.53874 32919 ft 516 kts 61°
2026-04-23 16:24 45.27602 -62.45034 32912 ft 515 kts 61°
2026-04-23 16:25 45.31124 -62.36245 32911 ft 515 kts 61°
2026-04-23 16:25 45.34663 -62.27393 32911 ft 515 kts 61°
2026-04-23 16:26 45.38195 -62.18532 32907 ft 515 kts 61°
2026-04-23 16:26 45.41727 -62.09643 32910 ft 516 kts 61°
2026-04-23 16:27 45.45231 -62.00799 32913 ft 516 kts 61°
2026-04-23 16:27 45.48629 -61.91796 32915 ft 516 kts 63°
2026-04-23 16:28 45.51904 -61.82688 32913 ft 515 kts 64°
2026-04-23 16:28 45.55178 -61.73591 32904 ft 515 kts 64°
2026-04-23 16:29 45.58470 -61.64498 32894 ft 515 kts 64°
2026-04-23 16:29 45.61740 -61.55466 32884 ft 515 kts 64°
2026-04-23 16:30 45.65028 -61.46361 32871 ft 515 kts 64°
2026-04-23 16:30 45.68305 -61.37249 32878 ft 515 kts 64°
2026-04-23 16:31 45.71559 -61.28166 32902 ft 515 kts 64°
2026-04-23 16:31 45.74818 -61.19038 32902 ft 515 kts 64°
2026-04-23 16:32 45.78078 -61.09883 32899 ft 514 kts 64°
2026-04-23 16:32 45.81321 -61.00740 32893 ft 514 kts 64°
2026-04-23 16:33 45.84527 -60.91669 32894 ft 514 kts 64°
2026-04-23 16:33 45.87761 -60.82489 32893 ft 514 kts 65°
2026-04-23 16:34 45.90978 -60.73326 32888 ft 513 kts 65°
2026-04-23 16:34 45.94183 -60.64168 32892 ft 512 kts 65°
2026-04-23 16:35 45.97359 -60.55058 32889 ft 512 kts 65°
2026-04-23 16:35 46.00542 -60.45896 32878 ft 512 kts 65°
2026-04-23 16:36 46.03719 -60.36724 32878 ft 512 kts 65°
2026-04-23 16:36 46.06870 -60.27591 32875 ft 512 kts 65°
2026-04-23 16:37 46.10028 -60.18406 32872 ft 512 kts 65°
2026-04-23 16:37 46.13181 -60.09207 32870 ft 512 kts 66°
2026-04-23 16:38 46.16320 -60.00020 32860 ft 508 kts 66°
2026-04-23 16:38 46.19441 -59.90848 32895 ft 508 kts 66°
2026-04-23 16:39 46.22536 -59.81718 32896 ft 509 kts 66°
2026-04-23 16:39 46.25641 -59.72530 32898 ft 509 kts 66°
2026-04-23 16:40 46.28742 -59.63323 32901 ft 508 kts 66°
2026-04-23 16:40 46.31833 -59.54115 32902 ft 508 kts 66°
2026-04-23 16:41 46.34892 -59.44966 32900 ft 508 kts 66°
2026-04-23 16:41 46.37967 -59.35739 32904 ft 508 kts 66°
2026-04-23 16:42 46.41027 -59.26528 32909 ft 506 kts 67°
2026-04-23 16:42 46.44069 -59.17333 32908 ft 506 kts 67°
2026-04-23 16:43 46.47089 -59.08169 32911 ft 507 kts 67°
2026-04-23 16:43 46.50121 -58.98941 32904 ft 507 kts 67°
2026-04-23 16:44 46.53146 -58.89707 32902 ft 504 kts 68°
2026-04-23 16:44 46.56150 -58.80499 32912 ft 503 kts 68°
2026-04-23 16:45 46.59123 -58.71350 32924 ft 503 kts 68°
2026-04-23 16:45 46.62112 -58.62120 32911 ft 503 kts 68°
2026-04-23 16:46 46.65069 -58.52958 32907 ft 503 kts 68°
2026-04-23 16:46 46.68036 -58.43734 32912 ft 503 kts 68°
2026-04-23 16:47 46.71002 -58.34474 32912 ft 504 kts 68°
2026-04-23 16:47 46.73967 -58.25190 32915 ft 505 kts 68°
2026-04-23 16:48 46.76917 -58.15920 32906 ft 502 kts 68°
2026-04-23 16:48 46.79848 -58.06673 32906 ft 501 kts 68°
2026-04-23 16:49 46.82748 -57.97490 32907 ft 501 kts 69°
2026-04-23 16:49 46.85663 -57.88226 32901 ft 501 kts 69°
2026-04-23 16:50 46.88566 -57.78967 32905 ft 499 kts 69°
2026-04-23 16:50 46.91449 -57.69743 32903 ft 498 kts 69°
2026-04-23 16:51 46.94319 -57.60518 32900 ft 498 kts 69°
2026-04-23 16:51 46.97169 -57.51322 32903 ft 499 kts 69°
2026-04-23 16:52 47.00030 -57.42066 32895 ft 498 kts 69°
2026-04-23 16:52 47.02872 -57.32841 32897 ft 496 kts 70°
2026-04-23 16:53 47.05699 -57.23619 32897 ft 496 kts 70°
2026-04-23 16:53 47.08519 -57.14390 32889 ft 496 kts 70°
2026-04-23 16:54 47.11312 -57.05218 32884 ft 495 kts 70°
2026-04-23 16:54 47.14106 -56.96014 32884 ft 491 kts 70°
2026-04-23 16:55 47.16876 -56.86845 32862 ft 491 kts 70°
2026-04-23 16:55 47.19622 -56.77720 32862 ft 491 kts 70°
2026-04-23 16:56 47.22383 -56.68514 32834 ft 492 kts 71°
2026-04-23 16:56 47.25131 -56.59328 32854 ft 488 kts 71°
2026-04-23 16:57 47.27861 -56.50163 32832 ft 488 kts 71°
2026-04-23 16:57 47.30576 -56.41007 32832 ft 488 kts 71°
2026-04-23 16:58 47.33268 -56.31899 32817 ft 488 kts 71°
2026-04-23 16:58 47.35968 -56.22733 32815 ft 485 kts 71°
2026-04-23 16:59 47.38643 -56.13622 32795 ft 483 kts 72°
2026-04-23 16:59 47.41307 -56.04506 32776 ft 483 kts 72°
2026-04-23 17:00 47.43950 -55.95423 32790 ft 484 kts 72°
2026-04-23 17:00 47.46604 -55.86275 32766 ft 483 kts 72°
2026-04-23 17:01 47.49231 -55.77202 32774 ft 478 kts 72°
2026-04-23 17:01 47.51837 -55.68154 32774 ft 477 kts 72°
2026-04-23 17:02 47.54413 -55.59163 32771 ft 478 kts 72°
2026-04-23 17:02 47.57001 -55.50106 32770 ft 478 kts 73°
2026-04-23 17:03 47.59579 -55.41068 32799 ft 472 kts 73°
2026-04-23 17:03 47.62118 -55.32123 32799 ft 470 kts 73°
2026-04-23 17:04 47.64643 -55.23180 32801 ft 470 kts 73°
2026-04-23 17:04 47.67151 -55.14268 32821 ft 472 kts 73°
2026-04-23 17:05 47.69679 -55.05253 32819 ft 472 kts 74°
2026-04-23 17:05 47.72181 -54.96323 32824 ft 467 kts 74°
2026-04-23 17:06 47.74664 -54.87408 32828 ft 466 kts 74°
2026-04-23 17:06 47.77119 -54.78549 32827 ft 466 kts 74°
2026-04-23 17:07 47.79584 -54.69626 32828 ft 466 kts 75°
2026-04-23 17:07 47.82040 -54.60708 32818 ft 466 kts 75°
2026-04-23 17:08 47.84079 -54.53278 32816 ft 466 kts 75°
2026-04-23 17:08 47.86526 -54.44331 32815 ft 466 kts 75°
2026-04-23 17:09 47.88966 -54.35375 32807 ft 466 kts 75°
2026-04-23 17:09 47.91399 -54.26407 32789 ft 467 kts 75°
2026-04-23 17:10 47.93821 -54.17461 32815 ft 463 kts 75°
2026-04-23 17:10 47.96206 -54.08608 32811 ft 463 kts 75°
2026-04-23 17:11 47.98597 -53.99688 32803 ft 462 kts 75°
2026-04-23 17:11 48.00986 -53.90747 32800 ft 463 kts 75°
2026-04-23 17:12 48.03361 -53.81830 32799 ft 461 kts 76°
2026-04-23 17:12 48.05721 -53.72945 32805 ft 459 kts 76°
2026-04-23 17:13 48.08051 -53.64125 32801 ft 459 kts 76°
2026-04-23 17:13 48.10392 -53.55227 32800 ft 459 kts 76°
2026-04-23 17:14 48.12722 -53.46341 32797 ft 459 kts 76°
2026-04-23 17:14 48.15049 -53.37432 32797 ft 458 kts 76°
2026-04-23 17:15 48.17362 -53.28550 32793 ft 457 kts 76°
2026-04-23 17:15 48.19649 -53.19726 32811 ft 457 kts 76°
2026-04-23 17:16 48.21944 -53.10833 32803 ft 457 kts 76°
2026-04-23 17:16 48.24235 -53.01927 32769 ft 457 kts 76°
2026-04-23 17:17 48.26517 -52.93023 32799 ft 457 kts 76°
2026-04-23 17:17 48.28787 -52.84130 32798 ft 456 kts 76°
2026-04-23 17:18 48.32182 -52.70762 32801 ft 456 kts 77°
2026-04-23 17:19 48.34423 -52.61895 32801 ft 456 kts 77°
2026-04-23 17:19 48.36668 -52.52980 32801 ft 455 kts 77°
2026-04-23 17:20 48.38903 -52.44067 32809 ft 455 kts 77°
2026-04-23 17:21 48.43336 -52.26281 32809 ft 455 kts 77°
2026-04-23 17:21 48.46654 -52.12878 32805 ft 455 kts 77°
2026-04-23 17:22 48.49957 -51.99486 32811 ft 454 kts 77°
2026-04-23 17:23 48.53237 -51.86110 32812 ft 453 kts 77°
2026-04-23 17:24 48.56385 -51.72681 32766 ft 451 kts 78°
2026-04-23 17:24 48.59149 -51.59175 32735 ft 449 kts 81°
2026-04-23 17:25 48.61202 -51.45389 32674 ft 447 kts 86°
2026-04-23 17:26 48.62723 -51.26825 32573 ft 446 kts 91°
2026-04-23 17:27 48.63370 -51.12816 32514 ft 445 kts 91°
2026-04-23 17:27 48.63885 -51.03468 32490 ft 446 kts 90°
2026-04-23 17:28 48.64599 -50.94199 32493 ft 447 kts 88°
2026-04-23 17:28 48.65521 -50.84871 32502 ft 448 kts 86°
2026-04-23 17:29 48.66626 -50.75571 32518 ft 449 kts 85°
2026-04-23 17:30 48.68537 -50.61745 32516 ft 449 kts 83°
2026-04-23 17:30 48.70613 -50.47930 32622 ft 447 kts 83°
2026-04-23 17:31 48.71930 -50.38740 32693 ft 445 kts 84°
2026-04-23 17:31 48.72987 -50.29597 32735 ft 442 kts 88°
2026-04-23 17:32 48.73529 -50.20339 32703 ft 440 kts 94°
2026-04-23 17:32 48.73334 -50.11080 32536 ft 441 kts 100°
2026-04-23 17:33 48.72954 -50.06467 32434 ft 442 kts 103°
2026-04-23 17:33 48.72419 -50.01865 32310 ft 444 kts 105°
2026-04-23 17:33 48.71780 -49.97283 32201 ft 446 kts 106°
2026-04-23 17:33 48.71102 -49.92690 32098 ft 447 kts 106°
2026-04-23 17:34 48.69930 -49.83386 31886 ft 453 kts 102°
2026-04-23 17:34 48.69564 -49.73778 31424 ft 466 kts 92°
2026-04-23 17:35 48.69913 -49.68911 30962 ft 478 kts 85°
2026-04-23 17:35 48.72438 -49.59181 27854 ft 531 kts 61°
2026-04-23 17:35 48.74731 -49.54717 22478 ft 521 kts 55°
2026-04-23 17:36 48.77276 -49.51225 12387 ft 464 kts 38°
2026-04-23 17:36 48.79860 -49.49261 134 ft 287 kts 47°
2026-04-23 17:36 48.80930 -49.48378 23 ft 67 kts 22°
2026-04-23 17:36 48.81015 -49.48151 24 ft 18 kts 19°
2026-04-23 17:37 48.80972 -49.47964 26 ft 19 kts 22°
2026-04-23 17:37 48.80922 -49.47777 26 ft 19 kts 25°
2026-04-23 17:37 48.80792 -49.47413 26 ft 20 kts 33°
2026-04-23 17:38 48.80719 -49.47244 25 ft 19 kts 35°
2026-04-23 17:38 48.80638 -49.47086 26 ft 19 kts 41°
2026-04-23 17:38 48.80549 -49.46937 26 ft 19 kts 46°
2026-04-23 17:38 48.80451 -49.46800 26 ft 19 kts 50°
2026-04-23 17:39 48.80347 -49.46679 26 ft 18 kts 57°
2026-04-23 17:39 48.80239 -49.46585 26 ft 17 kts 64°
2026-04-23 17:39 48.80131 -49.46511 25 ft 16 kts 70°
2026-04-23 17:39 48.80029 -49.46456 24 ft 14 kts 73°
2026-04-23 17:40 48.79930 -49.46410 25 ft 15 kts 77°
2026-04-23 17:40 48.79831 -49.46381 26 ft 15 kts 88°
2026-04-23 17:40 48.79733 -49.46385 25 ft 14 kts 96°
2026-04-23 17:40 48.79641 -49.46398 25 ft 12 kts 97°
2026-04-23 17:41 48.79558 -49.46417 24 ft 11 kts 102°
2026-04-23 17:41 48.79417 -49.46474 26 ft 9 kts 111°
2026-04-23 17:41 48.79359 -49.46508 26 ft 9 kts 113°
2026-04-23 17:42 48.79259 -49.46576 26 ft 7 kts 120°
2026-04-23 17:42 48.79219 -49.46610 26 ft 7 kts 123°
2026-04-23 17:42 48.79181 -49.46652 24 ft 7 kts 132°
2026-04-23 17:43 48.79150 -49.46702 24 ft 6 kts 143°
2026-04-23 17:43 48.79127 -49.46757 23 ft 5 kts 155°
2026-04-23 17:43 48.79114 -49.46802 22 ft 4 kts 161°
2026-04-23 17:43 48.79106 -49.46843 25 ft 4 kts 170°
2026-04-23 17:44 48.79103 -49.46883 23 ft 3 kts 183°
2026-04-23 17:44 48.79104 -49.46918 25 ft 3 kts 188°
2026-04-23 17:44 48.79113 -49.46976 26 ft 3 kts 200°
2026-04-23 17:45 48.79119 -49.47002 26 ft 3 kts 205°
2026-04-23 17:45 48.79136 -49.47051 26 ft 3 kts 212°
2026-04-23 17:45 48.79147 -49.47077 26 ft 3 kts 216°
2026-04-23 17:46 48.79174 -49.47132 26 ft 4 kts 220°
2026-04-23 17:46 48.79193 -49.47167 26 ft 5 kts 223°
2026-04-23 17:46 48.79216 -49.47205 26 ft 5 kts 226°
2026-04-23 17:47 48.79245 -49.47246 26 ft 6 kts 231°
2026-04-23 17:47 48.79276 -49.47286 26 ft 6 kts 233°
2026-04-23 17:47 48.79357 -49.47367 26 ft 8 kts 242°
2026-04-23 17:48 48.79412 -49.47403 25 ft 8 kts 250°
2026-04-23 17:48 48.79463 -49.47433 26 ft 8 kts 251°
2026-04-23 17:48 48.79519 -49.47461 26 ft 10 kts 255°
2026-04-23 17:48 48.79588 -49.47488 25 ft 11 kts 257°
2026-04-23 17:49 48.79667 -49.47515 25 ft 12 kts 259°
2026-04-23 17:49 48.79749 -49.47539 25 ft 12 kts 262°
2026-04-23 17:49 48.79827 -49.47558 26 ft 12 kts 263°
2026-04-23 17:49 48.79905 -49.47576 26 ft 12 kts 263°
2026-04-23 17:50 48.79987 -49.47594 26 ft 12 kts 263°
2026-04-23 17:50 48.80149 -49.47624 26 ft 11 kts 265°
2026-04-23 17:50 48.80230 -49.47635 25 ft 12 kts 267°
2026-04-23 17:51 48.80317 -49.47641 25 ft 13 kts 269°
2026-04-23 17:51 48.80405 -49.47646 24 ft 12 kts 269°
2026-04-23 17:51 48.80576 -49.47653 26 ft 13 kts 273°
2026-04-23 17:52 48.80671 -49.47645 25 ft 14 kts 276°
2026-04-23 17:52 48.80864 -49.47618 26 ft 14 kts 277°
2026-04-23 17:52 48.80957 -49.47603 25 ft 14 kts 279°
2026-04-23 17:53 48.81156 -49.47516 26 ft 16 kts 298°
2026-04-23 17:53 48.81259 -49.47434 26 ft 17 kts 300°
2026-04-23 17:53 48.81361 -49.47344 26 ft 17 kts 302°
2026-04-23 17:54 48.81462 -49.47251 25 ft 17 kts 303°
2026-04-23 17:54 48.81561 -49.47156 24 ft 18 kts 308°
2026-04-23 17:54 48.81764 -49.46920 25 ft 19 kts 312°
2026-04-23 17:55 48.81973 -49.46630 24 ft 21 kts 315°
2026-04-23 17:55 48.82080 -49.46465 26 ft 22 kts 319°
2026-04-23 17:55 48.82182 -49.46285 23 ft 22 kts 322°
2026-04-23 17:56 48.82206 -49.46240 26 ft 22 kts 323°